Location: アルンシュタイン
(50.0000°N, 10.0000°E)
Time: 18:17:56
(UTC+02:00)

Vanguard 1 Rocket - All Passes

Search period start: 11 September 2024 00:00
Search period end: 21 September 2024 00:00
Orbit: 649 x 4220 km, 34.3° (Epoch: 10 September)

Date Brightness Start Highest point End Pass type
(mag) Time Alt. Az. Time Alt. Az. Time Alt. Az.
11 Sep - 03:04:03 10° SSE 03:12:12 15° ESE 03:22:15 10° E visible
11 Sep - 05:21:16 10° SSW 05:37:11 39° SSE 05:59:16 10° E visible
11 Sep - 07:45:32 10° WSW 08:06:08 53° S 08:30:07 10° ESE daylight
11 Sep - 10:13:33 10° W 10:36:18 46° SSW 10:57:05 10° SE daylight
11 Sep - 12:46:03 10° W 13:03:47 25° SW 13:18:24 10° S daylight
12 Sep - 04:10:53 10° S 04:23:54 29° SE 04:42:22 10° E visible
12 Sep - 06:32:57 10° SW 06:51:07 49° SSE 07:15:10 10° E daylight
12 Sep - 08:59:16 10° WSW 09:21:12 51° S 09:44:07 10° SE daylight
12 Sep - 11:29:14 10° W 11:50:15 35° SW 12:08:21 10° SSE daylight
12 Sep - 14:10:08 10° WSW 14:15:33 11° WSW 14:20:37 10° SW daylight
13 Sep - 03:02:15 10° SSE 03:11:33 18° SE 03:23:51 10° E visible
13 Sep - 05:21:16 10° SW 05:36:49 42° SSE 05:59:20 10° E visible
13 Sep - 07:45:52 10° WSW 08:05:54 53° S 08:30:06 10° ESE daylight
13 Sep - 10:13:56 10° W 10:35:52 43° SSW 10:56:45 10° SE daylight
13 Sep - 12:47:13 10° W 13:03:01 21° SW 13:16:43 10° S daylight
14 Sep - 04:10:34 10° SSW 04:23:26 33° SE 04:42:38 10° E visible
14 Sep - 06:33:15 10° WSW 06:50:54 51° SSE 07:15:08 10° ESE daylight
14 Sep - 08:59:40 10° W 09:20:53 49° SSW 09:43:55 10° SE daylight
14 Sep - 11:29:51 10° W 11:49:36 31° SW 12:07:25 10° S daylight
15 Sep - 03:01:13 10° S 03:10:59 22° SE 03:24:47 10° E visible
15 Sep - 05:21:27 10° SW 05:36:34 45° SSE 05:59:18 10° E visible
15 Sep - 07:46:16 10° WSW 08:05:42 52° S 08:29:57 10° ESE daylight
15 Sep - 10:14:24 10° W 10:35:23 39° SSW 10:56:09 10° SSE daylight
15 Sep - 12:49:06 10° W 13:02:10 17° SW 13:14:06 10° SSW daylight
16 Sep - 01:55:52 10° SE 01:59:21 11° ESE 02:03:15 10° ESE visible
16 Sep - 04:10:31 10° SSW 04:23:06 36° SE 04:42:43 10° E visible
16 Sep - 06:33:39 10° WSW 06:50:45 51° S 07:15:00 10° ESE daylight
16 Sep - 09:00:08 10° W 09:20:34 46° SSW 09:43:30 10° SE daylight
16 Sep - 11:30:45 10° W 11:48:54 26° SW 12:05:59 10° S daylight
17 Sep - 03:00:41 10° S 03:10:34 25° SE 03:25:18 10° E visible
17 Sep - 05:21:46 10° SW 05:36:24 46° SSE 05:59:10 10° E visible
17 Sep - 07:46:46 10° WSW 08:05:31 50° S 08:29:39 10° ESE daylight
17 Sep - 10:15:02 10° W 10:34:51 35° SW 10:55:14 10° SSE daylight
17 Sep - 12:52:32 10° WSW 13:01:18 13° WSW 13:09:43 10° SW daylight
18 Sep - 01:53:08 10° SSE 01:58:51 14° SE 02:06:04 10° E visible
18 Sep - 04:10:40 10° SSW 04:22:53 38° SSE 04:42:40 10° E visible
18 Sep - 06:34:09 10° WSW 06:50:39 51° S 07:14:44 10° ESE daylight
18 Sep - 09:00:42 10° W 09:20:13 43° SSW 09:42:51 10° SE daylight
18 Sep - 11:32:04 10° W 11:48:10 22° SW 12:03:56 10° S daylight
19 Sep - 03:00:29 10° SSW 03:10:17 28° SE 03:25:35 10° E visible
19 Sep - 05:22:14 10° SW 05:36:19 47° SSE 05:58:57 10° ESE visible
19 Sep - 07:47:20 10° WSW 08:05:20 48° SSW 08:29:09 10° SE daylight
19 Sep - 10:15:51 10° W 10:34:18 31° SW 10:53:54 10° SSE daylight
20 Sep - 01:51:53 10° SSE 01:58:29 17° SE 02:07:27 10° E visible
20 Sep - 04:10:59 10° SW 04:22:47 40° SSE 04:42:32 10° E visible
20 Sep - 06:34:43 10° WSW 06:50:36 49° S 07:14:20 10° ESE visible
20 Sep - 09:01:23 10° W 09:19:51 38° SSW 09:41:54 10° SSE daylight
20 Sep - 11:34:05 10° W 11:47:26 18° SW 12:00:55 10° SSW daylight
